#timestamp,LO_Frequency,Hit,StdDev 
1694516415.8,286046996.6,N
1694516435.6,286046996.9,N
1694516455.4,286046999.5,N
1694516475.3,286046998.9,N
1694516495.1,286046999.1,N
1694516515.9,286046999.2,N
1694516535.7,286046999.2,N
1694516555.5,286046999.5,N
1694516575.4,286046999.5,N
1694516595.2,286046999.5,N
1694516615.0,286046999.6,N
1694516616.0,286046999.6,N
1694516635.8,286046999.2,N
1694516655.6,286046999.1,N
1694516675.5,286046999.2,N
1694516695.3,286046999.6,N
1694516715.1,286046999.5,N
1694516735.9,286046996.6,N
1694516755.7,286046996.6,N
1694516775.6,286046996.5,N
1694516795.4,286046998.9,N
1694516815.2,286046998.6,N
1694516835.1,286046998.4,N
1694516836.0,286046998.4,N
1694516855.8,286046998.4,N
1694516875.6,286047001.2,N
1694516895.5,286047001.2,N
1694516915.3,286046998.1,N
1694516935.2,286047001.1,N
1694516955.9,286047001.0,N
1694516975.7,286047000.7,N
1694516995.6,286047001.1,N
1694517015.4,286046998.3,N
1694517035.2,286047000.8,N
1694517055.1,286047000.8,N
1694517056.0,286047000.8,N
1694517075.8,286047000.9,N
1694517095.7,286047001.0,N
1694517115.5,286047000.8,N
1694517135.3,286047000.7,N
1694517155.2,286047001.2,N
1694517175.0,286046998.6,N
1694517175.9,286046998.6,N
1694517195.8,286046998.2,N
1694517215.6,286047001.2,N
1694517235.4,286047000.7,N
1694517255.3,286047001.1,N
1694517275.1,286047000.2,N
1694517295.8,286046999.9,N
1694517315.7,286047000.6,N
1694517335.5,286047000.6,N
1694517355.4,286047000.6,N
1694517375.2,286046999.9,N
1694517395.0,286046999.9,N
1694517395.9,286046999.9,N
1694517415.8,286047001.1,N
1694517435.6,286047000.9,N
1694517455.4,286047000.0,N
1694517475.3,286047000.0,N
1694517495.1,286047000.3,N
1694517515.9,286047000.4,N
1694517535.7,286047000.1,N
1694517555.5,286046999.8,N
1694517575.4,286047000.2,N
1694517595.2,286046999.9,N
1694517615.0,286047000.0,N
1694517615.9,286047000.0,N
1694517635.8,286047000.3,N
1694517655.6,286047000.4,N
1694517675.5,286047000.3,N
1694517695.3,286047000.3,N
1694517715.1,286047000.0,N
1694517735.9,286047000.2,N
1694517755.7,286046999.8,N
1694517775.6,286047000.7,N
1694517795.4,286047000.6,N
1694517815.2,286047000.8,N
1694517835.1,286047000.8,N
1694517836.0,286047000.8,N
1694517855.8,286046998.1,Y
1694517875.6,286046998.7,P
1694517895.5,286046998.8,N
1694517915.3,286046998.9,N
1694517935.2,286046998.1,N
1694517955.9,286046999.3,N
1694517975.7,286046999.1,N
1694517995.6,286046999.3,N
1694518015.4,286046999.6,N
1694518035.2,286046999.1,N
1694518055.1,286046999.1,N
1694518056.0,286046999.1,N
1694518075.8,286046999.2,N
1694518095.7,286046999.1,N
1694518115.5,286046999.3,N
1694518135.3,286046996.6,Y
1694518155.2,286046999.5,P
1694518175.0,286046999.3,P
1694518175.9,286046999.3,P
1694518195.8,286046999.6,Y
1694518215.6,286046998.1,P
1694518235.4,286047001.1,N
1694518255.3,286046998.4,N
1694518275.1,286046998.3,N
1694518295.9,286046998.1,N
1694518315.7,286046998.6,N
1694518335.5,286046998.4,N
1694518355.4,286046999.5,N
1694518375.2,286046997.0,Y
1694518395.0,286047001.2,P
1694518395.9,286047001.2,N
1694518415.8,286046998.4,N
1694518435.6,286046998.2,N
1694518455.5,286046998.5,N
1694518475.3,286046998.8,N
1694518495.1,286046998.9,N
1694518515.9,286046999.0,N
1694518535.7,286046999.5,N
1694518555.5,286046999.0,N
1694518575.4,286046999.0,N
1694518595.2,286046999.0,N
1694518615.1,286046997.0,Y
1694518616.0,286046997.0,P
1694518635.8,286046998.4,N
1694518655.6,286046998.4,N
1694518675.5,286047001.2,N
1694518695.3,286047001.1,N
1694518715.2,286047000.8,N
1694518735.9,286047000.7,N
1694518755.7,286046998.6,N
1694518775.6,286046998.3,N
1694518795.4,286046998.2,N
1694518815.2,286047001.1,N
1694518835.1,286047000.4,N
1694518836.0,286047000.4,N
1694518855.8,286046998.1,N
1694518875.7,286047001.1,N
1694518895.5,286046998.1,N
1694518915.3,286047000.7,N
1694518935.2,286047000.3,N
1694518955.0,286047001.2,N
1694518955.9,286047001.2,N
1694518975.8,286046999.9,N
1694518995.6,286047000.7,N
1694519015.4,286047001.0,N
1694519035.3,286047001.2,N
1694519055.1,286047001.2,N
1694519075.8,286047001.1,N
1694519095.7,286047001.1,N
1694519115.5,286047001.2,N
1694519135.4,286047001.1,N
1694519155.2,286047000.7,N
1694519175.0,286047000.5,N
1694519175.9,286047000.5,N
1694519195.8,286047000.7,N
1694519215.6,286047001.1,N
1694519235.4,286047000.4,N
1694519255.3,286047000.6,N
1694519275.1,286047000.0,N
1694519295.9,286047002.4,N
1694519315.7,286047000.1,N
1694519335.5,286046999.8,N
1694519355.4,286046999.7,N
1694519375.2,286047002.3,N
1694519395.0,286047002.7,N
1694519396.0,286047002.7,N
1694519415.8,286047002.6,N
1694519435.6,286047002.4,N
1694519455.5,286047002.0,N
1694519475.3,286047001.6,N
1694519495.1,286046999.7,N
1694519515.9,286046999.8,N
1694519535.7,286047002.8,N
1694519555.6,286047002.8,N
1694519575.4,286046999.7,N
1694519595.2,286047002.8,N
1694519615.1,286047002.6,N
1694519616.0,286047002.6,N
1694519635.8,286047002.6,N
1694519655.7,286047002.5,N
1694519675.5,286047002.1,N
1694519695.3,286047002.1,N
1694519715.2,286047002.6,N
1694519735.0,286047002.1,N
1694519735.9,286047002.1,N
1694519755.7,286047002.8,N
1694519775.6,286047002.5,N
1694519795.4,286047002.1,N
1694519815.3,286047002.0,N
1694519835.1,286047002.4,N
1694519836.0,286047002.4,N
1694519855.8,286047002.4,N
1694519875.7,286047002.3,N
1694519895.5,286047002.6,Y
1694519915.4,286046998.4,P
1694519935.2,286047001.0,N
1694519955.0,286047000.6,N
1694519955.9,286047000.6,N
1694519975.8,286047000.8,N
1694519995.6,286047000.4,N
